Location: Iesi
(43.5167°N, 13.2333°E)
Time: 17:59:33
(UTC+00:00)

Cosmos 1605 Rocket - Pass Details

Date: 08 August 2020
Orbit: 946 x 1005 km, 82.9° (Epoch: 23 September)

Event Time Altitude Azimuth Distance (km) Brightness Sun altitude
Exits shadow 20:21:07 26° 167° (SSE) 1,773 4.9 -18.9°
Maximum altitude 20:24:37 65° 94° (E) 1,042 3.9 -19.3°
Drops below altitude 10° 20:30:39 10° 14° (NNE) 2,678 6.7 -20.1°
Sets 20:33:09 0° 11° (N) 3,625 7.5 -20.4°
